Year,Month,Day,Hour,Minute,Value (Times are PST for temperature in C)
2013,06,19,00,00,11.70
2013,06,19,00,01,11.70
2013,06,19,00,02,11.70
2013,06,19,00,03,11.70
2013,06,19,00,04,11.70
2013,06,19,00,05,11.70
2013,06,19,00,06,11.70
2013,06,19,00,07,11.70
2013,06,19,00,08,11.70
2013,06,19,00,09,11.70
2013,06,19,00,10,11.70
2013,06,19,00,11,11.80
2013,06,19,00,12,11.80
2013,06,19,00,13,11.80
2013,06,19,00,14,11.80
2013,06,19,00,15,11.70
2013,06,19,00,16,11.70
2013,06,19,00,17,11.70
2013,06,19,00,18,11.60
2013,06,19,00,19,11.60
2013,06,19,00,20,11.60
2013,06,19,00,21,11.60
2013,06,19,00,22,11.50
2013,06,19,00,23,11.50
2013,06,19,00,24,11.50
2013,06,19,00,25,11.50
2013,06,19,00,26,11.40
2013,06,19,00,27,11.40
2013,06,19,00,28,11.40
2013,06,19,00,29,11.40
2013,06,19,00,30,11.40
2013,06,19,00,31,11.30
2013,06,19,00,32,11.30
2013,06,19,00,33,11.30
2013,06,19,00,34,11.30
2013,06,19,00,35,11.30
2013,06,19,00,36,11.20
2013,06,19,00,37,11.20
2013,06,19,00,38,11.20
2013,06,19,00,39,11.20
2013,06,19,00,40,11.20
2013,06,19,00,41,11.20
2013,06,19,00,42,11.10
2013,06,19,00,43,11.10
2013,06,19,00,44,11.10
2013,06,19,00,45,11.10
2013,06,19,00,46,11.10
2013,06,19,00,47,11.10
2013,06,19,00,48,11.10
2013,06,19,00,49,11.10
2013,06,19,00,50,11.10
2013,06,19,00,51,11.10
2013,06,19,00,52,11.10
2013,06,19,00,53,11.10
2013,06,19,00,54,11.20
2013,06,19,00,55,11.20
2013,06,19,00,56,11.20
2013,06,19,00,57,11.20
2013,06,19,00,58,11.20
2013,06,19,00,59,11.20
2013,06,19,01,00,11.20
2013,06,19,01,01,11.20
2013,06,19,01,02,11.20
2013,06,19,01,03,11.30
2013,06,19,01,04,11.30
2013,06,19,01,05,11.30
2013,06,19,01,06,11.30
2013,06,19,01,07,11.20
2013,06,19,01,08,11.20
2013,06,19,01,09,11.20
2013,06,19,01,10,11.20
2013,06,19,01,11,11.10
2013,06,19,01,12,11.10
2013,06,19,01,13,11.10
2013,06,19,01,14,11.10
2013,06,19,01,15,11.10
2013,06,19,01,16,11.00
2013,06,19,01,17,11.00
2013,06,19,01,18,11.00
2013,06,19,01,19,11.00
2013,06,19,01,20,10.90
2013,06,19,01,21,10.90
2013,06,19,01,22,10.90
2013,06,19,01,23,10.90
2013,06,19,01,24,10.90
2013,06,19,01,25,10.90
2013,06,19,01,26,10.90
2013,06,19,01,27,10.90
2013,06,19,01,28,10.90
2013,06,19,01,29,10.90
2013,06,19,01,30,10.90
2013,06,19,01,31,10.90
2013,06,19,01,32,10.90
2013,06,19,01,33,10.80
2013,06,19,01,34,10.80
2013,06,19,01,35,10.80
2013,06,19,01,36,10.80
2013,06,19,01,37,10.90
2013,06,19,01,38,10.90
2013,06,19,01,39,10.90
2013,06,19,01,40,10.90
2013,06,19,01,41,10.90
2013,06,19,01,42,10.90
2013,06,19,01,43,10.90
2013,06,19,01,44,10.90
2013,06,19,01,45,10.90
2013,06,19,01,46,10.90
2013,06,19,01,47,10.90
2013,06,19,01,48,10.90
2013,06,19,01,49,10.90
2013,06,19,01,50,10.90
2013,06,19,01,51,10.90
2013,06,19,01,52,10.80
2013,06,19,01,53,10.80
2013,06,19,01,54,10.80
2013,06,19,01,55,10.80
2013,06,19,01,56,10.80
2013,06,19,01,57,10.80
2013,06,19,01,58,10.80
2013,06,19,01,59,10.80
2013,06,19,02,00,10.80
2013,06,19,02,01,10.80
2013,06,19,02,02,10.80
2013,06,19,02,03,10.80
2013,06,19,02,04,10.80
2013,06,19,02,05,10.80
2013,06,19,02,06,10.80
2013,06,19,02,07,10.80
2013,06,19,02,08,10.80
2013,06,19,02,09,10.70
2013,06,19,02,10,10.70
2013,06,19,02,11,10.70
2013,06,19,02,12,10.70
2013,06,19,02,13,10.70
2013,06,19,02,14,10.70
2013,06,19,02,15,10.70
2013,06,19,02,16,10.70
2013,06,19,02,17,10.70
2013,06,19,02,18,10.70
2013,06,19,02,19,10.70
2013,06,19,02,20,10.60
2013,06,19,02,21,10.60
2013,06,19,02,22,10.60
2013,06,19,02,23,10.60
2013,06,19,02,24,10.60
2013,06,19,02,25,10.60
2013,06,19,02,26,10.60
2013,06,19,02,27,10.60
2013,06,19,02,28,10.60
2013,06,19,02,29,10.60
2013,06,19,02,30,10.60
2013,06,19,02,31,10.70
2013,06,19,02,32,10.70
2013,06,19,02,33,10.70
2013,06,19,02,34,10.70
2013,06,19,02,35,10.70
2013,06,19,02,36,10.80
2013,06,19,02,37,10.80
2013,06,19,02,38,10.80
2013,06,19,02,39,10.70
2013,06,19,02,40,10.70
2013,06,19,02,41,10.70
2013,06,19,02,42,10.70
2013,06,19,02,43,10.60
2013,06,19,02,44,10.60
2013,06,19,02,45,10.60
2013,06,19,02,46,10.50
2013,06,19,02,47,10.50
2013,06,19,02,48,10.50
2013,06,19,02,49,10.50
2013,06,19,02,50,10.40
2013,06,19,02,51,10.40
2013,06,19,02,52,10.40
2013,06,19,02,53,10.40
2013,06,19,02,54,10.40
2013,06,19,02,55,10.40
2013,06,19,02,56,10.40
2013,06,19,02,57,10.40
2013,06,19,02,58,10.40
2013,06,19,02,59,10.40
2013,06,19,03,00,10.40
2013,06,19,03,01,10.40
2013,06,19,03,02,10.40
2013,06,19,03,03,10.40
2013,06,19,03,04,10.40
2013,06,19,03,05,10.40
2013,06,19,03,06,10.40
2013,06,19,03,07,10.40
2013,06,19,03,08,10.40
2013,06,19,03,09,10.40
2013,06,19,03,10,10.40
2013,06,19,03,11,10.40
2013,06,19,03,12,10.40
2013,06,19,03,13,10.40
2013,06,19,03,14,10.40
2013,06,19,03,15,10.50
2013,06,19,03,16,10.50
2013,06,19,03,17,10.50
2013,06,19,03,18,10.50
2013,06,19,03,19,10.60
2013,06,19,03,20,10.60
2013,06,19,03,21,10.60
2013,06,19,03,22,10.60
2013,06,19,03,23,10.60
2013,06,19,03,24,10.70
2013,06,19,03,25,10.70
2013,06,19,03,26,10.70
2013,06,19,03,27,10.80
2013,06,19,03,28,10.80
2013,06,19,03,29,10.80
2013,06,19,03,30,10.80
2013,06,19,03,31,10.80
2013,06,19,03,32,10.90
2013,06,19,03,33,10.90
2013,06,19,03,34,10.90
2013,06,19,03,35,10.90
2013,06,19,03,36,11.00
2013,06,19,03,37,11.00
2013,06,19,03,38,11.00
2013,06,19,03,39,11.00
2013,06,19,03,40,11.00
2013,06,19,03,41,11.00
2013,06,19,03,42,11.00
2013,06,19,03,43,11.00
2013,06,19,03,44,11.00
2013,06,19,03,45,11.00
2013,06,19,03,46,11.00
2013,06,19,03,47,11.00
2013,06,19,03,48,11.00
2013,06,19,03,49,11.00
2013,06,19,03,50,11.00
2013,06,19,03,51,11.00
2013,06,19,03,52,10.90
2013,06,19,03,53,10.90
2013,06,19,03,54,10.90
2013,06,19,03,55,10.90
2013,06,19,03,56,10.90
2013,06,19,03,57,10.90
2013,06,19,03,58,10.90
2013,06,19,03,59,10.80
2013,06,19,04,00,10.80
2013,06,19,04,01,10.80
2013,06,19,04,02,10.80
2013,06,19,04,03,10.80
2013,06,19,04,04,10.80
2013,06,19,04,05,10.80
2013,06,19,04,06,10.80
2013,06,19,04,07,10.80
2013,06,19,04,08,10.80
2013,06,19,04,09,10.80
2013,06,19,04,10,10.80
2013,06,19,04,11,10.80
2013,06,19,04,12,10.80
2013,06,19,04,13,10.80
2013,06,19,04,14,10.80
2013,06,19,04,15,10.80
2013,06,19,04,16,10.80
2013,06,19,04,17,10.80
2013,06,19,04,18,10.80
2013,06,19,04,19,10.80
2013,06,19,04,20,10.80
2013,06,19,04,21,10.80
2013,06,19,04,22,10.80
2013,06,19,04,23,10.80
2013,06,19,04,24,10.80
2013,06,19,04,25,10.80
2013,06,19,04,26,10.70
2013,06,19,04,27,10.70
2013,06,19,04,28,10.60
2013,06,19,04,29,10.60
2013,06,19,04,30,10.50
2013,06,19,04,31,10.40
2013,06,19,04,32,10.40
2013,06,19,04,33,10.40
2013,06,19,04,34,10.30
2013,06,19,04,35,10.30
2013,06,19,04,36,10.30
2013,06,19,04,37,10.30
2013,06,19,04,38,10.20
2013,06,19,04,39,10.20
2013,06,19,04,40,10.10
2013,06,19,04,41,10.10
2013,06,19,04,42,10.10
2013,06,19,04,43,10.10
2013,06,19,04,44,10.10
2013,06,19,04,45,10.10
2013,06,19,04,46,10.10
2013,06,19,04,47,10.10
2013,06,19,04,48,10.00
2013,06,19,04,49,10.00
2013,06,19,04,50,10.00
2013,06,19,04,51,10.00
2013,06,19,04,52,10.10
2013,06,19,04,53,10.10
2013,06,19,04,54,10.10
2013,06,19,04,55,10.10
2013,06,19,04,56,10.10
2013,06,19,04,57,10.10
2013,06,19,04,58,10.10
2013,06,19,04,59,10.10
2013,06,19,05,00,10.10
2013,06,19,05,01,10.10
2013,06,19,05,02,10.10
2013,06,19,05,03,10.10
2013,06,19,05,04,10.20
2013,06,19,05,05,10.20
2013,06,19,05,06,10.20
2013,06,19,05,07,10.20
2013,06,19,05,08,10.20
2013,06,19,05,09,10.30
2013,06,19,05,10,10.30
2013,06,19,05,11,10.30
2013,06,19,05,12,10.30
2013,06,19,05,13,10.40
2013,06,19,05,14,10.40
2013,06,19,05,15,10.40
2013,06,19,05,16,10.50
2013,06,19,05,17,10.50
2013,06,19,05,18,10.50
2013,06,19,05,19,10.50
2013,06,19,05,20,10.60
2013,06,19,05,21,10.60
2013,06,19,05,22,10.60
2013,06,19,05,23,10.60
2013,06,19,05,24,10.60
2013,06,19,05,25,10.60
2013,06,19,05,26,10.60
2013,06,19,05,27,10.60
2013,06,19,05,28,10.60
2013,06,19,05,29,10.60
2013,06,19,05,30,10.60
2013,06,19,05,31,10.60
2013,06,19,05,32,10.60
2013,06,19,05,33,10.60
2013,06,19,05,34,10.60
2013,06,19,05,35,10.60
2013,06,19,05,36,10.60
2013,06,19,05,37,10.60
2013,06,19,05,38,10.70
2013,06,19,05,39,10.70
2013,06,19,05,40,10.70
2013,06,19,05,41,10.70
2013,06,19,05,42,10.70
2013,06,19,05,43,10.70
2013,06,19,05,44,10.70
2013,06,19,05,45,10.80
2013,06,19,05,46,10.80
2013,06,19,05,47,10.80
2013,06,19,05,48,10.80
2013,06,19,05,49,10.80
2013,06,19,05,50,10.90
2013,06,19,05,51,10.90
2013,06,19,05,52,10.90
2013,06,19,05,53,10.90
2013,06,19,05,54,10.90
2013,06,19,05,55,10.90
2013,06,19,05,56,10.90
2013,06,19,05,57,10.90
2013,06,19,05,58,11.20
2013,06,19,05,59,11.30
2013,06,19,06,00,11.30
2013,06,19,06,01,11.30
2013,06,19,06,02,11.40
2013,06,19,06,03,11.40
2013,06,19,06,04,11.40
2013,06,19,06,05,11.40
2013,06,19,06,06,11.50
2013,06,19,06,07,11.50
2013,06,19,06,08,11.60
2013,06,19,06,09,11.60
2013,06,19,06,10,11.60
2013,06,19,06,11,11.70
2013,06,19,06,12,11.70
2013,06,19,06,13,11.70
2013,06,19,06,14,11.70
2013,06,19,06,15,11.70
2013,06,19,06,16,11.80
2013,06,19,06,17,11.80
2013,06,19,06,18,11.80
2013,06,19,06,19,11.80
2013,06,19,06,20,11.80
2013,06,19,06,21,11.80
2013,06,19,06,22,11.80
2013,06,19,06,23,11.80
2013,06,19,06,24,11.80
2013,06,19,06,25,11.80
2013,06,19,06,26,11.90
2013,06,19,06,27,11.90
2013,06,19,06,28,11.90
2013,06,19,06,29,12.00
2013,06,19,06,30,12.00
2013,06,19,06,31,12.00
2013,06,19,06,32,12.10
2013,06,19,06,33,12.10
2013,06,19,06,34,12.10
2013,06,19,06,35,12.20
2013,06,19,06,36,12.20
2013,06,19,06,37,12.20
2013,06,19,06,38,12.30
2013,06,19,06,39,12.30
2013,06,19,06,40,12.40
2013,06,19,06,41,12.40
2013,06,19,06,42,12.40
2013,06,19,06,43,12.40
2013,06,19,06,44,12.50
2013,06,19,06,45,12.50
2013,06,19,06,46,12.60
2013,06,19,06,47,12.60
2013,06,19,06,48,12.60
2013,06,19,06,49,12.60
2013,06,19,06,50,12.60
2013,06,19,06,51,12.60
2013,06,19,06,52,12.60
2013,06,19,06,53,12.70
2013,06,19,06,54,12.70
2013,06,19,06,55,12.70
2013,06,19,06,56,12.60
2013,06,19,06,57,12.60
2013,06,19,06,58,12.60
2013,06,19,06,59,12.60
2013,06,19,07,00,12.60
2013,06,19,07,01,12.60
2013,06,19,07,02,12.60
2013,06,19,07,03,12.60
2013,06,19,07,04,12.60
2013,06,19,07,05,12.60
2013,06,19,07,06,12.60
2013,06,19,07,07,12.60
2013,06,19,07,08,12.70
2013,06,19,07,09,12.70
2013,06,19,07,10,12.70
2013,06,19,07,11,12.70
2013,06,19,07,12,12.70
2013,06,19,07,13,12.70
2013,06,19,07,14,12.80
2013,06,19,07,15,12.80
2013,06,19,07,16,12.80
2013,06,19,07,17,12.80
2013,06,19,07,18,12.90
2013,06,19,07,19,12.90
2013,06,19,07,20,12.90
2013,06,19,07,21,13.00
2013,06,19,07,22,13.10
2013,06,19,07,23,13.10
2013,06,19,07,24,13.20
2013,06,19,07,25,13.20
2013,06,19,07,26,13.30
2013,06,19,07,27,13.30
2013,06,19,07,28,13.40
2013,06,19,07,29,13.40
2013,06,19,07,30,13.50
2013,06,19,07,31,13.50
2013,06,19,07,32,13.60
2013,06,19,07,33,13.60
2013,06,19,07,34,13.70
2013,06,19,07,35,13.70
2013,06,19,07,36,13.70
2013,06,19,07,37,13.70
2013,06,19,07,38,13.70
2013,06,19,07,39,13.70
2013,06,19,07,40,13.70
2013,06,19,07,41,13.70
2013,06,19,07,42,13.70
2013,06,19,07,43,13.70
2013,06,19,07,44,13.70
2013,06,19,07,45,13.70
2013,06,19,07,46,13.70
2013,06,19,07,47,13.60
2013,06,19,07,48,13.60
2013,06,19,07,49,13.60
2013,06,19,07,50,13.50
2013,06,19,07,51,13.50
2013,06,19,07,52,13.50
2013,06,19,07,53,13.40
2013,06,19,07,54,13.40
2013,06,19,07,55,13.40
2013,06,19,07,56,13.30
2013,06,19,07,57,13.30
2013,06,19,07,58,13.30
2013,06,19,07,59,13.30
2013,06,19,08,00,13.30
2013,06,19,08,01,13.30
2013,06,19,08,02,13.40
2013,06,19,08,03,13.40
2013,06,19,08,04,13.40
2013,06,19,08,05,13.40
2013,06,19,08,06,13.50
2013,06,19,08,07,13.50
2013,06,19,08,08,13.60
2013,06,19,08,09,13.60
2013,06,19,08,10,13.70
2013,06,19,08,11,13.70
2013,06,19,08,12,13.80
2013,06,19,08,13,13.80
2013,06,19,08,14,13.80
2013,06,19,08,15,13.90
2013,06,19,08,16,13.90
2013,06,19,08,17,13.90
2013,06,19,08,18,14.00
2013,06,19,08,19,14.00
2013,06,19,08,20,14.00
2013,06,19,08,21,14.10
2013,06,19,08,22,14.10
2013,06,19,08,23,14.10
2013,06,19,08,24,14.10
2013,06,19,08,25,14.10
2013,06,19,08,26,14.10
2013,06,19,08,27,14.20
2013,06,19,08,28,14.30
2013,06,19,08,29,14.50
2013,06,19,08,30,14.60
2013,06,19,08,31,14.70
2013,06,19,08,32,14.80
2013,06,19,08,33,14.90
2013,06,19,08,34,14.90
2013,06,19,08,35,14.90
2013,06,19,08,36,15.00
2013,06,19,08,37,15.00
2013,06,19,08,38,15.10
2013,06,19,08,39,15.10
2013,06,19,08,40,15.10
2013,06,19,08,41,15.10
2013,06,19,08,42,15.00
2013,06,19,08,43,15.00
2013,06,19,08,44,14.90
2013,06,19,08,45,14.90
2013,06,19,08,46,14.80
2013,06,19,08,47,14.80
2013,06,19,08,48,14.80
2013,06,19,08,49,14.70
2013,06,19,08,50,14.70
2013,06,19,08,51,14.70
2013,06,19,08,52,14.70
2013,06,19,08,53,14.70
2013,06,19,08,54,14.70
2013,06,19,08,55,14.60
2013,06,19,08,56,14.60
2013,06,19,08,57,14.60
2013,06,19,08,58,14.60
2013,06,19,08,59,14.60
2013,06,19,09,00,14.60
2013,06,19,09,01,14.60
2013,06,19,09,02,14.60
2013,06,19,09,03,14.70
2013,06,19,09,04,14.70
2013,06,19,09,05,14.70
2013,06,19,09,06,14.60
2013,06,19,09,07,14.60
2013,06,19,09,08,14.60
2013,06,19,09,09,14.60
2013,06,19,09,10,14.60
2013,06,19,09,11,14.60
2013,06,19,09,12,14.70
2013,06,19,09,13,14.70
2013,06,19,09,14,14.70
2013,06,19,09,15,14.80
2013,06,19,09,16,14.80
2013,06,19,09,17,14.80
2013,06,19,09,18,14.90
2013,06,19,09,19,14.90
2013,06,19,09,20,14.90
2013,06,19,09,21,14.90
2013,06,19,09,22,15.00
2013,06,19,09,23,15.00
2013,06,19,09,24,15.10
2013,06,19,09,25,15.10
2013,06,19,09,26,15.20
2013,06,19,09,27,15.30
2013,06,19,09,28,15.30
2013,06,19,09,29,15.40
2013,06,19,09,30,15.50
2013,06,19,09,31,15.60
2013,06,19,09,32,15.60
2013,06,19,09,33,15.70
2013,06,19,09,34,15.80
2013,06,19,09,35,15.90
2013,06,19,09,36,16.00
2013,06,19,09,37,16.20
2013,06,19,09,38,16.30
2013,06,19,09,39,16.50
2013,06,19,09,40,16.50
2013,06,19,09,41,16.50
2013,06,19,09,42,16.60
2013,06,19,09,43,16.60
2013,06,19,09,44,16.60
2013,06,19,09,45,16.70
2013,06,19,09,46,16.70
2013,06,19,09,47,16.80
2013,06,19,09,48,16.80
2013,06,19,09,49,16.80
2013,06,19,09,50,16.90
2013,06,19,09,51,16.90
2013,06,19,09,52,16.90
2013,06,19,09,53,17.00
2013,06,19,09,54,17.00
2013,06,19,09,55,17.10
2013,06,19,09,56,17.20
2013,06,19,09,57,17.30
2013,06,19,09,58,17.30
2013,06,19,09,59,17.40
2013,06,19,10,00,17.50
2013,06,19,10,01,17.70
2013,06,19,10,02,17.70
2013,06,19,10,03,17.70
2013,06,19,10,04,17.80
2013,06,19,10,05,17.80
2013,06,19,10,06,17.80
2013,06,19,10,07,17.80
2013,06,19,10,08,17.80
2013,06,19,10,09,17.70
2013,06,19,10,10,17.60
2013,06,19,10,11,17.50
2013,06,19,10,12,17.60
2013,06,19,10,13,17.60
2013,06,19,10,14,17.60
2013,06,19,10,15,17.60
2013,06,19,10,16,17.50
2013,06,19,10,17,17.40
2013,06,19,10,18,17.30
2013,06,19,10,19,17.20
2013,06,19,10,20,17.20
2013,06,19,10,21,17.20
2013,06,19,10,22,17.20
2013,06,19,10,23,17.20
2013,06,19,10,24,17.40
2013,06,19,10,25,17.40
2013,06,19,10,26,17.40
2013,06,19,10,27,17.50
2013,06,19,10,28,17.50
2013,06,19,10,29,17.50
2013,06,19,10,30,17.50
2013,06,19,10,31,17.60
2013,06,19,10,32,17.70
2013,06,19,10,33,17.70
2013,06,19,10,34,17.70
2013,06,19,10,35,17.70
2013,06,19,10,36,17.70
2013,06,19,10,37,17.60
2013,06,19,10,38,17.60
2013,06,19,10,39,17.50
2013,06,19,10,40,17.50
2013,06,19,10,41,17.40
2013,06,19,10,42,17.40
2013,06,19,10,43,17.50
2013,06,19,10,44,17.60
2013,06,19,10,45,17.60
2013,06,19,10,46,17.60
2013,06,19,10,47,17.70
2013,06,19,10,48,17.80
2013,06,19,10,49,17.90
2013,06,19,10,50,18.00
2013,06,19,10,51,18.10
2013,06,19,10,52,18.10
2013,06,19,10,53,18.20
2013,06,19,10,54,18.30
2013,06,19,10,55,18.40
2013,06,19,10,56,18.50
2013,06,19,10,57,18.50
2013,06,19,10,58,18.60
2013,06,19,10,59,18.60
2013,06,19,11,00,18.60
2013,06,19,11,01,18.60
2013,06,19,11,02,18.60
2013,06,19,11,03,18.60
2013,06,19,11,04,18.80
2013,06,19,11,05,18.90
2013,06,19,11,06,19.10
2013,06,19,11,07,19.20
2013,06,19,11,08,19.30
2013,06,19,11,09,19.40
2013,06,19,11,10,19.50
2013,06,19,11,11,19.60
2013,06,19,11,12,19.50
2013,06,19,11,13,19.50
2013,06,19,11,14,19.40
2013,06,19,11,15,19.30
2013,06,19,11,16,19.10
2013,06,19,11,17,19.00
2013,06,19,11,18,18.90
2013,06,19,11,19,18.80
2013,06,19,11,20,18.80
2013,06,19,11,21,18.60
2013,06,19,11,22,18.50
2013,06,19,11,23,18.50
2013,06,19,11,24,18.50
2013,06,19,11,25,18.40
2013,06,19,11,26,18.40
2013,06,19,11,27,18.30
2013,06,19,11,28,18.30
2013,06,19,11,29,18.40
2013,06,19,11,30,18.50
2013,06,19,11,31,18.70
2013,06,19,11,32,18.80
2013,06,19,11,33,18.80
2013,06,19,11,34,18.90
2013,06,19,11,35,19.00
2013,06,19,11,36,19.20
2013,06,19,11,37,19.30
2013,06,19,11,38,19.20
2013,06,19,11,39,19.30
2013,06,19,11,40,19.40
2013,06,19,11,41,19.40
2013,06,19,11,42,19.30
2013,06,19,11,43,19.30
2013,06,19,11,44,19.20
2013,06,19,11,45,19.20
2013,06,19,11,46,19.20
2013,06,19,11,47,19.10
2013,06,19,11,48,19.20
2013,06,19,11,49,19.40
2013,06,19,11,50,19.60
2013,06,19,11,51,19.70
2013,06,19,11,52,19.60
2013,06,19,11,53,19.70
2013,06,19,11,54,19.70
2013,06,19,11,55,19.70
2013,06,19,11,56,19.70
2013,06,19,11,57,19.70
2013,06,19,11,58,19.70
2013,06,19,11,59,19.70
2013,06,19,12,00,19.60
2013,06,19,12,01,19.40
2013,06,19,12,02,19.20
2013,06,19,12,03,19.10
2013,06,19,12,04,19.10
2013,06,19,12,05,19.10
2013,06,19,12,06,19.20
2013,06,19,12,07,19.30
2013,06,19,12,08,19.40
2013,06,19,12,09,19.50
2013,06,19,12,10,19.60
2013,06,19,12,11,19.60
2013,06,19,12,12,19.60
2013,06,19,12,13,19.60
2013,06,19,12,14,19.50
2013,06,19,12,15,19.50
2013,06,19,12,16,19.40
2013,06,19,12,17,19.40
2013,06,19,12,18,19.30
2013,06,19,12,19,19.30
2013,06,19,12,20,19.30
2013,06,19,12,21,19.20
2013,06,19,12,22,19.30
2013,06,19,12,23,19.30
2013,06,19,12,24,19.30
2013,06,19,12,25,19.30
2013,06,19,12,26,19.30
2013,06,19,12,27,19.20
2013,06,19,12,28,19.20
2013,06,19,12,29,19.20
2013,06,19,12,30,19.20
2013,06,19,12,31,19.20
2013,06,19,12,32,19.10
2013,06,19,12,33,19.10
2013,06,19,12,34,19.10
2013,06,19,12,35,19.10
2013,06,19,12,36,19.10
2013,06,19,12,37,19.20
2013,06,19,12,38,19.20
2013,06,19,12,39,19.30
2013,06,19,12,40,19.30
2013,06,19,12,41,19.30
2013,06,19,12,42,19.30
2013,06,19,12,43,19.30
2013,06,19,12,44,19.40
2013,06,19,12,45,19.40
2013,06,19,12,46,19.40
2013,06,19,12,47,19.40
2013,06,19,12,48,19.40
2013,06,19,12,49,19.40
2013,06,19,12,50,19.50
2013,06,19,12,51,19.50
2013,06,19,12,52,19.60
2013,06,19,12,53,19.60
2013,06,19,12,54,19.70
2013,06,19,12,55,19.80
2013,06,19,12,56,19.90
2013,06,19,12,57,19.90
2013,06,19,12,58,20.00
2013,06,19,12,59,20.00
2013,06,19,13,00,20.10
2013,06,19,13,01,20.20
2013,06,19,13,02,20.20
2013,06,19,13,03,20.10
2013,06,19,13,04,20.10
2013,06,19,13,05,20.10
2013,06,19,13,06,20.10
2013,06,19,13,07,20.10
2013,06,19,13,08,20.10
2013,06,19,13,09,20.10
2013,06,19,13,10,20.20
2013,06,19,13,11,20.10
2013,06,19,13,12,20.10
2013,06,19,13,13,20.10
2013,06,19,13,14,20.00
2013,06,19,13,15,20.00
2013,06,19,13,16,19.90
2013,06,19,13,17,19.80
2013,06,19,13,18,19.80
2013,06,19,13,19,19.70
2013,06,19,13,20,19.70
2013,06,19,13,21,19.70
2013,06,19,13,22,19.70
2013,06,19,13,23,19.80
2013,06,19,13,24,19.90
2013,06,19,13,25,20.00
2013,06,19,13,26,20.20
2013,06,19,13,27,20.20
2013,06,19,13,28,20.20
2013,06,19,13,29,20.20
2013,06,19,13,30,20.30
2013,06,19,13,31,20.40
2013,06,19,13,32,20.40
2013,06,19,13,33,20.50
2013,06,19,13,34,20.50
2013,06,19,13,35,20.60
2013,06,19,13,36,20.70
2013,06,19,13,37,20.80
2013,06,19,13,38,20.70
2013,06,19,13,39,20.70
2013,06,19,13,40,20.70
2013,06,19,13,41,20.70
2013,06,19,13,42,20.50
2013,06,19,13,43,20.40
2013,06,19,13,44,20.30
2013,06,19,13,45,20.20
2013,06,19,13,46,20.00
2013,06,19,13,47,19.80
2013,06,19,13,48,19.70
2013,06,19,13,49,19.60
2013,06,19,13,50,19.50
2013,06,19,13,51,19.40
2013,06,19,13,52,19.50
2013,06,19,13,53,19.60
2013,06,19,13,54,19.60
2013,06,19,13,55,19.70
2013,06,19,13,56,19.80
2013,06,19,13,57,19.90
2013,06,19,13,58,19.90
2013,06,19,13,59,19.90
2013,06,19,14,00,20.00
2013,06,19,14,01,20.10
2013,06,19,14,02,20.10
2013,06,19,14,03,20.10
2013,06,19,14,04,20.10
2013,06,19,14,05,20.10
2013,06,19,14,06,20.20
2013,06,19,14,07,20.20
2013,06,19,14,08,20.30
2013,06,19,14,09,20.30
2013,06,19,14,10,20.30
2013,06,19,14,11,20.20
2013,06,19,14,12,20.00
2013,06,19,14,13,19.90
2013,06,19,14,14,19.80
2013,06,19,14,15,19.70
2013,06,19,14,16,19.50
2013,06,19,14,17,19.30
2013,06,19,14,18,19.20
2013,06,19,14,19,19.10
2013,06,19,14,20,19.00
2013,06,19,14,21,18.90
2013,06,19,14,22,18.90
2013,06,19,14,23,18.90
2013,06,19,14,24,18.90
2013,06,19,14,25,18.90
2013,06,19,14,26,18.80
2013,06,19,14,27,18.80
2013,06,19,14,28,18.80
2013,06,19,14,29,18.80
2013,06,19,14,30,18.80
2013,06,19,14,31,18.80
2013,06,19,14,32,18.80
2013,06,19,14,33,18.70
2013,06,19,14,34,18.70
2013,06,19,14,35,18.70
2013,06,19,14,36,18.70
2013,06,19,14,37,18.60
2013,06,19,14,38,18.60
2013,06,19,14,39,18.60
2013,06,19,14,40,18.50
2013,06,19,14,41,18.50
2013,06,19,14,42,18.40
2013,06,19,14,43,18.30
2013,06,19,14,44,18.20
2013,06,19,14,45,18.10
2013,06,19,14,46,18.10
2013,06,19,14,47,18.00
2013,06,19,14,48,17.90
2013,06,19,14,49,17.80
2013,06,19,14,50,17.70
2013,06,19,14,51,17.70
2013,06,19,14,52,17.60
2013,06,19,14,53,17.50
2013,06,19,14,54,17.50
2013,06,19,14,55,17.40
2013,06,19,14,56,17.30
2013,06,19,14,57,17.30
2013,06,19,14,58,17.20
2013,06,19,14,59,17.20
2013,06,19,15,00,17.10
2013,06,19,15,01,17.10
2013,06,19,15,02,17.10
2013,06,19,15,03,17.00
2013,06,19,15,04,17.00
2013,06,19,15,05,17.00
2013,06,19,15,06,17.00
2013,06,19,15,07,17.00
2013,06,19,15,08,16.90
2013,06,19,15,09,17.00
2013,06,19,15,10,17.00
2013,06,19,15,11,17.00
2013,06,19,15,12,17.00
2013,06,19,15,13,17.00
2013,06,19,15,14,17.00
2013,06,19,15,15,17.10
2013,06,19,15,16,17.10
2013,06,19,15,17,17.10
2013,06,19,15,18,17.10
2013,06,19,15,19,17.10
2013,06,19,15,20,17.10
2013,06,19,15,21,17.10
2013,06,19,15,22,17.10
2013,06,19,15,23,17.00
2013,06,19,15,24,17.00
2013,06,19,15,25,17.10
2013,06,19,15,26,17.10
2013,06,19,15,27,17.10
2013,06,19,15,28,17.10
2013,06,19,15,29,17.10
2013,06,19,15,30,17.10
2013,06,19,15,31,17.20
2013,06,19,15,32,17.20
2013,06,19,15,33,17.20
2013,06,19,15,34,17.20
2013,06,19,15,35,17.20
2013,06,19,15,36,17.20
2013,06,19,15,37,17.20
2013,06,19,15,38,17.20
2013,06,19,15,39,17.20
2013,06,19,15,40,17.10
2013,06,19,15,41,17.10
2013,06,19,15,42,17.10
2013,06,19,15,43,17.00
2013,06,19,15,44,16.90
2013,06,19,15,45,16.80
2013,06,19,15,46,16.80
2013,06,19,15,47,16.80
2013,06,19,15,48,16.70
2013,06,19,15,49,16.70
2013,06,19,15,50,16.70
2013,06,19,15,51,16.60
2013,06,19,15,52,16.50
2013,06,19,15,53,16.50
2013,06,19,15,54,16.40
2013,06,19,15,55,16.40
2013,06,19,15,56,16.40
2013,06,19,15,57,16.50
2013,06,19,15,58,16.50
2013,06,19,15,59,16.60
2013,06,19,16,00,16.60
2013,06,19,16,01,16.70
2013,06,19,16,02,16.70
2013,06,19,16,03,16.70
2013,06,19,16,04,16.80
2013,06,19,16,05,16.80
2013,06,19,16,06,16.80
2013,06,19,16,07,16.80
2013,06,19,16,08,16.90
2013,06,19,16,09,16.90
2013,06,19,16,10,16.90
2013,06,19,16,11,17.00
2013,06,19,16,12,17.00
2013,06,19,16,13,17.00
2013,06,19,16,14,17.00
2013,06,19,16,15,17.00
2013,06,19,16,16,17.00
2013,06,19,16,17,17.00
2013,06,19,16,18,17.10
2013,06,19,16,19,17.00
2013,06,19,16,20,17.00
2013,06,19,16,21,17.00
2013,06,19,16,22,17.00
2013,06,19,16,23,17.00
2013,06,19,16,24,16.90
2013,06,19,16,25,16.90
2013,06,19,16,26,16.90
2013,06,19,16,27,16.90
2013,06,19,16,28,16.90
2013,06,19,16,29,16.90
2013,06,19,16,30,16.90
2013,06,19,16,31,16.90
2013,06,19,16,32,16.90
2013,06,19,16,33,17.00
2013,06,19,16,34,17.00
2013,06,19,16,35,17.10
2013,06,19,16,36,17.10
2013,06,19,16,37,17.10
2013,06,19,16,38,17.20
2013,06,19,16,39,17.20
2013,06,19,16,40,17.20
2013,06,19,16,41,17.20
2013,06,19,16,42,17.20
2013,06,19,16,43,17.20
2013,06,19,16,44,17.20
2013,06,19,16,45,17.20
2013,06,19,16,46,17.20
2013,06,19,16,47,17.30
2013,06,19,16,48,17.40
2013,06,19,16,49,17.50
2013,06,19,16,50,17.60
2013,06,19,16,51,17.60
2013,06,19,16,52,17.80
2013,06,19,16,53,17.80
2013,06,19,16,54,18.00
2013,06,19,16,55,18.00
2013,06,19,16,56,18.10
2013,06,19,16,57,18.20
2013,06,19,16,58,18.20
2013,06,19,16,59,18.30
2013,06,19,17,00,18.40
2013,06,19,17,01,18.50
2013,06,19,17,02,18.50
2013,06,19,17,03,18.60
2013,06,19,17,04,18.70
2013,06,19,17,05,18.70
2013,06,19,17,06,18.70
2013,06,19,17,07,18.80
2013,06,19,17,08,18.80
2013,06,19,17,09,18.80
2013,06,19,17,10,18.80
2013,06,19,17,11,18.80
2013,06,19,17,12,18.80
2013,06,19,17,13,18.80
2013,06,19,17,14,18.80
2013,06,19,17,15,18.80
2013,06,19,17,16,18.80
2013,06,19,17,17,18.80
2013,06,19,17,18,18.80
2013,06,19,17,19,18.90